• In Netherlands
  • List of Countries
  • For 7 days
  • Water Temperature
  • Satellite Maps
  • Weather Map
  • Weather Widgets
  • user-avatar
    Login

    Hourly Weather Tirana

    Today, 1 May, Monday

    Time Temperature Precipitation Wind Pressure Humidity
    00:00 +14°C° 0.3 mm 3 mps 751 mmHg 91%
    01:00 +14°C° 0.3 mm 3 mps 751 mmHg 91%
    02:00 +14°C° 0 mm 3 mps 751 mmHg 91%
    03:00 +13°C° 0 mm 3 mps 751 mmHg 91%
    04:00 +13°C° 0 mm 3 mps 751 mmHg 91%
    05:00 +16°C° 0 mm 3 mps 751 mmHg 86%
    06:00 +17°C° 0 mm 2 mps 751 mmHg 81%
    07:00 +18°C° 0 mm 2 mps 752 mmHg 75%
    08:00 +20°C° 0 mm 2 mps 752 mmHg 68%
    09:00 +22°C° 0 mm 3 mps 752 mmHg 61%
    10:00 +25°C° 0 mm 3 mps 752 mmHg 53%
    11:00 +25°C° 0.1 mm 3 mps 752 mmHg 55%
    12:00 +25°C° 0.1 mm 4 mps 752 mmHg 56%
    13:00 +25°C° 0.1 mm 4 mps 752 mmHg 58%
    14:00 +23°C° 0.1 mm 4 mps 752 mmHg 61%
    15:00 +23°C° 0.1 mm 4 mps 751 mmHg 64%
    16:00 +22°C° 0.1 mm 3 mps 751 mmHg 67%
    17:00 +20°C° 0 mm 3 mps 752 mmHg 75%
    18:00 +18°C° 0 mm 2 mps 752 mmHg 84%
    19:00 +16°C° 0 mm 1 mps 752 mmHg 92%
    20:00 +15°C° 0 mm 1 mps 752 mmHg 93%
    21:00 +15°C° 0 mm 1 mps 753 mmHg 93%
    22:00 +13°C° 0 mm 0 mps 753 mmHg 94%
    23:00 +13°C° 0 mm 0 mps 753 mmHg 93%

    Tomorrow, 2 May, Tuesday

    Time Temperature Precipitation Wind Pressure Humidity
    00:00 +13°C° 0 mm 0 mps 753 mmHg 93%
    01:00 +12°C° 0 mm 0 mps 753 mmHg 93%
    02:00 +13°C° 0 mm 1 mps 753 mmHg 93%
    03:00 +13°C° 0 mm 1 mps 753 mmHg 94%
    04:00 +12°C° 0 mm 1 mps 753 mmHg 94%
    05:00 +15°C° 0 mm 1 mps 753 mmHg 87%
    06:00 +18°C° 0 mm 1 mps 754 mmHg 79%
    07:00 +21°C° 0 mm 1 mps 754 mmHg 72%
    08:00 +22°C° 0 mm 1 mps 754 mmHg 64%
    09:00 +24°C° 0 mm 2 mps 754 mmHg 56%
    10:00 +26°C° 0 mm 2 mps 754 mmHg 48%
    11:00 +26°C° 0 mm 3 mps 754 mmHg 46%
    12:00 +26°C° 0 mm 4 mps 754 mmHg 44%
    13:00 +27°C° 0 mm 4 mps 754 mmHg 43%
    14:00 +26°C° 0 mm 4 mps 754 mmHg 45%
    15:00 +25°C° 0 mm 4 mps 754 mmHg 47%
    16:00 +25°C° 0 mm 4 mps 754 mmHg 49%
    17:00 +21°C° 0 mm 3 mps 754 mmHg 59%
    18:00 +18°C° 0 mm 3 mps 754 mmHg 70%
    19:00 +16°C° 0 mm 2 mps 754 mmHg 80%
    20:00 +15°C° 0 mm 2 mps 754 mmHg 81%
    21:00 +15°C° 0 mm 2 mps 754 mmHg 83%
    22:00 +14°C° 0 mm 1 mps 755 mmHg 84%
    23:00 +14°C° 0 mm 2 mps 755 mmHg 84%

    Day after tomorrow, 3 May, Wednesday

    Time Temperature Precipitation Wind Pressure Humidity
    00:00 +14°C° 0 mm 2 mps 755 mmHg 85%
    01:00 +14°C° 0 mm 2 mps 754 mmHg 86%
    02:00 +13°C° 0 mm 2 mps 754 mmHg 87%
    03:00 +13°C° 0 mm 2 mps 754 mmHg 87%
    04:00 +13°C° 0 mm 2 mps 754 mmHg 88%
    05:00 +15°C° 0 mm 2 mps 754 mmHg 79%
    06:00 +19°C° 0 mm 1 mps 754 mmHg 70%
    07:00 +21°C° 0 mm 1 mps 754 mmHg 62%
    08:00 +23°C° 0 mm 2 mps 754 mmHg 57%
    09:00 +24°C° 0 mm 2 mps 754 mmHg 53%
    10:00 +26°C° 0 mm 2 mps 754 mmHg 49%
    11:00 +26°C° 0 mm 3 mps 754 mmHg 48%
    12:00 +26°C° 0 mm 3 mps 754 mmHg 48%
    13:00 +27°C° 0 mm 4 mps 754 mmHg 48%
    14:00 +26°C° 0.1 mm 4 mps 754 mmHg 50%
    15:00 +25°C° 0.1 mm 3 mps 753 mmHg 51%
    16:00 +25°C° 0.1 mm 3 mps 753 mmHg 53%
    17:00 +21°C° 0 mm 3 mps 753 mmHg 63%
    18:00 +18°C° 0 mm 2 mps 753 mmHg 73%
    19:00 +16°C° 0 mm 2 mps 753 mmHg 84%
    20:00 +15°C° 0 mm 1 mps 753 mmHg 85%
    21:00 +14°C° 0 mm 1 mps 754 mmHg 86%
    22:00 +13°C° 0 mm 0 mps 754 mmHg 88%
    23:00 +13°C° 0 mm 0 mps 754 mmHg 88%

    4 May, Thursday

    Time Temperature Precipitation Wind Pressure Humidity
    00:00 +12°C° 0 mm 0 mps 753 mmHg 88%
    01:00 +12°C° 0 mm 0 mps 753 mmHg 88%
    02:00 +12°C° 0 mm 0 mps 753 mmHg 88%
    03:00 +11°C° 0 mm 0 mps 753 mmHg 88%
    04:00 +11°C° 0 mm 0 mps 753 mmHg 87%
    05:00 +14°C° 0 mm 0 mps 753 mmHg 79%
    06:00 +16°C° 0 mm 0 mps 752 mmHg 70%
    07:00 +19°C° 0 mm 0 mps 752 mmHg 62%
    08:00 +20°C° 0 mm 0 mps 752 mmHg 55%
    09:00 +24°C° 0 mm 1 mps 753 mmHg 48%
    10:00 +25°C° 0 mm 1 mps 753 mmHg 42%
    11:00 +25°C° 0 mm 2 mps 752 mmHg 41%
    12:00 +26°C° 0 mm 2 mps 752 mmHg 41%
    13:00 +26°C° 0 mm 3 mps 752 mmHg 40%
    14:00 +25°C° 0 mm 3 mps 752 mmHg 43%
    15:00 +25°C° 0 mm 3 mps 752 mmHg 46%
    16:00 +24°C° 0 mm 2 mps 751 mmHg 49%
    17:00 +20°C° 0 mm 2 mps 752 mmHg 60%
    18:00 +18°C° 0 mm 2 mps 752 mmHg 70%
    19:00 +15°C° 0 mm 1 mps 752 mmHg 81%
    20:00 +15°C° 0 mm 1 mps 752 mmHg 83%
    21:00 +14°C° 0 mm 2 mps 752 mmHg 84%
    22:00 +14°C° 0 mm 2 mps 753 mmHg 85%
    23:00 +13°C° 0 mm 2 mps 753 mmHg 86%

    5 May, Friday

    Time Temperature Precipitation Wind Pressure Humidity
    00:00 +13°C° 0 mm 2 mps 752 mmHg 87%
    01:00 +12°C° 0 mm 2 mps 752 mmHg 87%
    02:00 +12°C° 0 mm 2 mps 752 mmHg 87%
    03:00 +12°C° 0 mm 2 mps 752 mmHg 87%
    04:00 +12°C° 0 mm 2 mps 752 mmHg 87%
    05:00 +14°C° 0.1 mm 2 mps 752 mmHg 78%
    06:00 +16°C° 0.1 mm 2 mps 752 mmHg 68%
    07:00 +19°C° 0.1 mm 2 mps 752 mmHg 58%
    08:00 +20°C° 0.1 mm 2 mps 752 mmHg 55%
    09:00 +21°C° 0.1 mm 2 mps 752 mmHg 51%
    10:00 +22°C° 0.1 mm 3 mps 752 mmHg 47%
    11:00 +22°C° 0.2 mm 3 mps 752 mmHg 51%
    12:00 +22°C° 0.2 mm 4 mps 752 mmHg 54%
    13:00 +22°C° 0.2 mm 5 mps 751 mmHg 58%
    14:00 +21°C° 0.4 mm 4 mps 751 mmHg 61%
    15:00 +21°C° 0.4 mm 4 mps 751 mmHg 63%
    16:00 +20°C° 0.4 mm 4 mps 751 mmHg 66%
    17:00 +18°C° 0 mm 3 mps 752 mmHg 74%
    18:00 +16°C° 0 mm 3 mps 752 mmHg 83%
    19:00 +13°C° 0 mm 3 mps 752 mmHg 91%
    20:00 +13°C° 0 mm 2 mps 753 mmHg 92%
    21:00 +13°C° 0 mm 2 mps 753 mmHg 93%
    22:00 +12°C° 0 mm 2 mps 753 mmHg 94%
    23:00 +12°C° 0 mm 2 mps 753 mmHg 94%

    6 May, Saturday

    Time Temperature Precipitation Wind Pressure Humidity
    00:00 +12°C° 0 mm 2 mps 753 mmHg 93%
    01:00 +10°C° 0 mm 2 mps 753 mmHg 93%
    02:00 +10°C° 0 mm 2 mps 753 mmHg 93%
    03:00 +10°C° 0 mm 2 mps 753 mmHg 92%
    04:00 +11°C° 0 mm 1 mps 753 mmHg 92%
    05:00 +13°C° 0 mm 1 mps 753 mmHg 85%
    06:00 +15°C° 0 mm 1 mps 753 mmHg 79%
    07:00 +18°C° 0 mm 1 mps 753 mmHg 72%
    08:00 +18°C° 0 mm 2 mps 753 mmHg 66%
    09:00 +20°C° 0 mm 2 mps 753 mmHg 59%
    10:00 +23°C° 0 mm 2 mps 753 mmHg 53%
    11:00 +22°C° 0 mm 3 mps 753 mmHg 51%
    12:00 +24°C° 0 mm 3 mps 753 mmHg 49%
    13:00 +25°C° 0 mm 4 mps 753 mmHg 47%
    14:00 +24°C° 0 mm 3 mps 753 mmHg 49%
    15:00 +24°C° 0 mm 3 mps 752 mmHg 51%
    16:00 +22°C° 0 mm 3 mps 752 mmHg 54%
    17:00 +19°C° 0 mm 3 mps 752 mmHg 66%
    18:00 +16°C° 0 mm 2 mps 752 mmHg 77%
    19:00 +14°C° 0 mm 1 mps 753 mmHg 89%
    20:00 +13°C° 0 mm 1 mps 753 mmHg 89%
    21:00 +12°C° 0 mm 0 mps 753 mmHg 89%
    22:00 +11°C° 0 mm 0 mps 753 mmHg 89%
    23:00 +11°C° 0 mm 0 mps 753 mmHg 87%
    Show more